Stations météo

réclame
Mon MeteoGroup
Gioia Del Colle, Italie (16312): Température de l'air & dewpoint: 14.10.2017 08:00:00 - 20.10.2017 08:00:00 (CEST)Gioia Del Colle, Italie (16312): Vitesse du vent: 14.10.2017 08:00:00 - 20.10.2017 08:00:00 (CEST)Gioia Del Colle, Italie (16312): Direction du vent: 14.10.2017 08:00:00 - 20.10.2017 08:00:00 (CEST)Gioia Del Colle, Italie (16312): reduced air pressure: 14.10.2017 08:00:00 - 20.10.2017 08:00:00 (CEST)Gioia Del Colle, Italie (16312): visibility: 14.10.2017 08:00:00 - 20.10.2017 08:00:00 (CEST)
Date & Time tt [°C] td [°C] ff [km/h] ff [knt] dd ppp [hPa] vv [km]
20.10.2017 08:00:00 11,6 11,6 4 2 ENE 1018,8 0,2
20.10.2017 07:00:00 12,0 12,0 4 2 NE - 0,6
20.10.2017 06:00:00 13,0 13,0 4 2 WNW - 1,6
20.10.2017 05:00:00 13,4 13,1 4 2 NW 1018,1 1,6
20.10.2017 04:00:00 13,0 13,0 2 1 - - 1,2
20.10.2017 03:00:00 13,0 13,0 4 2 SE - 0,2
20.10.2017 02:00:00 13,4 13,4 4 2 SSW 1018,1 0,2
20.10.2017 01:00:00 13,0 13,0 2 1 SW - 0,1
20.10.2017 00:00:00 13,0 13,0 5 3 SSW - 0,2
19.10.2017 23:00:00 14,0 13,4 9 5 S 1018,0 1,4
19.10.2017 22:00:00 15,0 14,0 8 4 S - 3,2
19.10.2017 21:00:00 15,0 14,0 9 5 SSE - 3,5
19.10.2017 20:00:00 15,8 13,7 9 5 S 1017,4 10
19.10.2017 19:00:00 17,0 14,0 9 5 S - 10
19.10.2017 18:00:00 19,0 13,0 15 8 S - 10
19.10.2017 17:00:00 20,8 7,1 13 7 S 1016,4 10
19.10.2017 16:00:00 22,0 7,0 9 5 SSE - 10
19.10.2017 15:00:00 22,0 9,0 9 5 S - 10
19.10.2017 14:00:00 22,0 8,2 9 5 SSW 1017,1 10
19.10.2017 13:00:00 21,0 10,0 9 5 S - 10
19.10.2017 12:00:00 20,0 14,0 11 6 S - 10
19.10.2017 11:00:00 18,6 15,7 9 5 S 1018,1 6
19.10.2017 10:00:00 15,0 15,0 13 7 SSE - 3,5
19.10.2017 09:00:00 11,0 11,0 0 0 N - 3,0
19.10.2017 08:00:00 9,6 9,6 2 1 ENE 1019,1 -
19.10.2017 07:00:00 9,0 9,0 2 1 - - 0,2
19.10.2017 06:00:00 8,0 8,0 5 3 NW - 0,8
19.10.2017 05:00:00 9,0 9,0 2 1 - 1019,2 9
19.10.2017 04:00:00 10,0 10,0 4 2 NNW - 9
19.10.2017 03:00:00 10,0 10,0 2 1 NE - 9
19.10.2017 02:00:00 10,0 10,0 2 1 - 1019,1 9
19.10.2017 01:00:00 11,0 11,0 2 1 - - 9
19.10.2017 00:00:00 12,0 12,0 5 3 S - 8
18.10.2017 23:00:00 12,8 12,8 5 3 S 1018,8 8
18.10.2017 22:00:00 14,0 14,0 5 3 - - 10
18.10.2017 21:00:00 15,0 15,0 4 2 SSW - 10
18.10.2017 20:00:00 15,8 14,2 5 3 SSW 1018,2 10
18.10.2017 19:00:00 17,0 13,0 8 4 S - 10
18.10.2017 18:00:00 20,0 12,0 13 7 S - 10
18.10.2017 17:00:00 22,0 8,2 15 8 S 1017,0 10
18.10.2017 16:00:00 24,0 8,0 15 8 S - 10
18.10.2017 15:00:00 24,0 8,0 9 5 S - 10
18.10.2017 14:00:00 24,2 8,2 11 6 S 1018,2 10
18.10.2017 13:00:00 24,0 7,0 11 6 S - 10
18.10.2017 12:00:00 23,0 8,0 8 4 SSW - 10
18.10.2017 11:00:00 22,6 4,6 5 3 S 1019,3 10
18.10.2017 10:00:00 19,0 5,0 5 3 SSW - 10
18.10.2017 09:00:00 14,0 12,0 0 0 N - 10
18.10.2017 08:00:00 10,0 9,6 4 2 W 1020,9 10
18.10.2017 07:00:00 10,0 9,0 4 2 WNW - 8
18.10.2017 06:00:00 10,0 9,0 2 1 - - 8
18.10.2017 05:00:00 10,2 9,3 2 1 - 1021,4 8
18.10.2017 04:00:00 11,0 10,0 2 1 - - 10
18.10.2017 03:00:00 12,0 12,0 2 1 - - 8
18.10.2017 02:00:00 12,2 12,2 2 1 - 1022,3 8
18.10.2017 01:00:00 13,0 12,0 2 1 NNW - 8
18.10.2017 00:00:00 14,0 12,0 2 1 - - 10
17.10.2017 23:00:00 14,4 12,8 2 1 - 1022,4 10
17.10.2017 22:00:00 15,0 14,0 2 1 S - 10
17.10.2017 21:00:00 16,0 14,0 2 1 - - 10
17.10.2017 20:00:00 16,6 14,4 5 3 W 1023,0 10
17.10.2017 19:00:00 19,0 15,0 2 1 N - 10
17.10.2017 18:00:00 21,0 13,0 8 4 N - 10
17.10.2017 17:00:00 23,6 9,6 11 6 N 1022,4 10
17.10.2017 16:00:00 25,0 10,0 15 8 N - 10
17.10.2017 15:00:00 24,0 5,0 11 6 N - 10
17.10.2017 14:00:00 24,2 1,8 9 5 - 1023,3 10
17.10.2017 13:00:00 24,0 1,0 8 4 - - 10
17.10.2017 12:00:00 24,0 1,0 4 2 N - 10
17.10.2017 11:00:00 20,6 2,9 4 2 - 1024,9 10
17.10.2017 10:00:00 13,0 2,0 4 2 - - 10
17.10.2017 09:00:00 11,0 10,0 2 1 - - 10
17.10.2017 08:00:00 8,6 7,1 2 1 - 1026,5 10
17.10.2017 07:00:00 8,0 7,0 2 1 - - 10
17.10.2017 06:00:00 8,0 6,0 2 1 - - 10
17.10.2017 05:00:00 8,8 6,8 5 3 NNE 1026,6 10
17.10.2017 04:00:00 9,0 7,0 4 2 N - 10
17.10.2017 03:00:00 9,0 8,0 4 2 - - 10
17.10.2017 02:00:00 10,0 8,1 0 0 N 1027,3 10
17.10.2017 01:00:00 11,0 9,0 0 0 N - 10
17.10.2017 00:00:00 12,0 9,0 4 2 WNW - 10
16.10.2017 23:00:00 12,2 10,6 4 2 WNW 1027,2 10
16.10.2017 22:00:00 13,0 11,0 4 2 WNW - 10
16.10.2017 21:00:00 14,0 12,0 4 2 NW - 10
16.10.2017 20:00:00 15,6 12,7 8 4 NNW 1026,5 10
16.10.2017 19:00:00 18,0 11,0 8 4 NNE - 10
16.10.2017 18:00:00 20,0 8,0 13 7 N - 10
16.10.2017 17:00:00 21,6 6,7 15 8 N 1025,6 10
16.10.2017 16:00:00 22,0 7,0 15 8 N - 10
16.10.2017 15:00:00 24,0 5,0 13 7 N - 10
16.10.2017 14:00:00 23,6 4,5 9 5 N 1025,7 10
16.10.2017 13:00:00 23,0 5,0 11 6 NNE - 10
16.10.2017 12:00:00 22,0 7,0 11 6 N - 10
16.10.2017 11:00:00 19,2 9,1 9 5 N 1026,4 10
16.10.2017 10:00:00 18,0 11,0 11 6 NNW - 10
16.10.2017 09:00:00 14,0 10,0 11 6 N - 10
16.10.2017 08:00:00 9,4 9,3 9 5 NE 1027,3 10
16.10.2017 07:00:00 10,0 10,0 8 4 NNE - 10
16.10.2017 06:00:00 10,0 10,0 4 2 N - 6
16.10.2017 05:00:00 10,6 10,4 8 4 N 1027,1 3,5
16.10.2017 04:00:00 12,0 12,0 4 2 NNW - -
16.10.2017 03:00:00 13,0 13,0 8 4 NW - -
16.10.2017 02:00:00 13,2 12,9 4 2 N 1027,5 -
16.10.2017 01:00:00 14,0 14,0 5 3 NNW - 1,6
16.10.2017 00:00:00 14,0 14,0 9 5 N - 2,0
15.10.2017 23:00:00 14,2 13,7 4 2 NW 1027,2 2,0
15.10.2017 22:00:00 15,0 14,0 9 5 N - 2,0
15.10.2017 21:00:00 15,0 15,0 9 5 NNW - 4,0
15.10.2017 20:00:00 15,0 14,2 15 8 N 1026,5 4,5
15.10.2017 19:00:00 16,0 14,0 8 4 N - 6
15.10.2017 18:00:00 17,0 14,0 16 9 N - 8
15.10.2017 17:00:00 20,0 9,3 18 10 N 1025,5 10
15.10.2017 16:00:00 22,0 3,0 18 10 N - 10
15.10.2017 15:00:00 22,0 4,0 18 10 N - 10
15.10.2017 14:00:00 22,0 5,9 21 11 NNW 1025,9 10
15.10.2017 13:00:00 21,0 7,0 18 10 N - 10
15.10.2017 12:00:00 20,0 7,0 18 10 N - 10
15.10.2017 11:00:00 19,0 7,1 15 8 NNW 1027,1 10
15.10.2017 10:00:00 18,0 8,0 16 9 NNW - 10
15.10.2017 09:00:00 15,0 8,0 4 2 N - 10
15.10.2017 08:00:00 11,6 6,7 8 4 WNW 1027,3 10
15.10.2017 07:00:00 10,0 7,0 4 2 WNW - 10
15.10.2017 06:00:00 11,0 7,0 2 1 N - 9
15.10.2017 05:00:00 11,2 7,9 5 3 NW 1027,0 9
15.10.2017 04:00:00 12,0 8,0 2 1 - - 7
15.10.2017 03:00:00 13,0 8,0 8 4 NNW - 7
15.10.2017 02:00:00 12,8 8,9 8 4 NNW 1026,9 6
15.10.2017 01:00:00 13,0 12,0 8 4 NNW - 5
15.10.2017 00:00:00 14,0 14,0 11 6 NNW - 4,0
14.10.2017 23:00:00 15,4 15,1 11 6 NNW 1026,5 1,6
14.10.2017 22:00:00 15,0 15,0 11 6 NNW - 1,8
14.10.2017 21:00:00 15,0 15,0 11 6 NNW - 1,6
14.10.2017 20:00:00 16,0 15,2 16 9 N 1025,8 3,0
14.10.2017 19:00:00 16,0 15,0 18 10 N - 4,0
14.10.2017 18:00:00 17,0 13,0 22 12 N - 6
14.10.2017 17:00:00 18,2 11,7 22 12 N 1025,0 10
14.10.2017 16:00:00 19,0 11,0 24 13 N - 10
14.10.2017 15:00:00 20,0 9,0 26 14 N - 10
14.10.2017 14:00:00 20,4 10,2 21 11 N 1025,2 10
14.10.2017 13:00:00 20,0 11,0 21 11 N - 10
14.10.2017 12:00:00 19,0 11,0 21 11 N - 10
14.10.2017 11:00:00 18,0 11,1 18 10 N 1025,7 10
14.10.2017 10:00:00 17,0 10,0 18 10 N - 10
14.10.2017 09:00:00 16,0 10,0 15 8 N - 10
14.10.2017 08:00:00 13,8 9,3 4 2 NNW 1025,4 8

tt = Température de l'air
td = dewpoint
ff = Vitesse du vent
dd = Direction du vent
ppp = reduced air pressure
vv = visibility

stations d'obs. à proximité